Terug naar catalogus

SL-6 DEB

ActiefHEO
NORAD 13904·DEBRIS·🇷🇺 Russia

Gelanceerd Sep 11, 1981 vanaf Plesetsk Cosmodrome

Loading…

Volgende Passages (komende 24 uur)

TLE

VersSource: Space-Track

Epoch: Sep 14, 2026, 03:07 UTC

1 13904U 81088G   26257.13017269 -.00000019  00000-0 -26418-3 0  9999
2 13904  62.9433 158.2663 4752576 306.9475  18.3200  5.48376227671021

Volg SL-6 DEB in realtime met AllMySat

Download on the App Store